Location: Capvern
(43.1036°N, 0.3160°E)
Time: 23:17:14
(UTC+00:00)

SKYMED 2 - Pass Details

Date: 16 October 2021
Orbit: 621 x 623 km, 97.9° (Epoch: 04 December)

Event Time Altitude Azimuth Distance (km) Brightness Sun altitude
Rises 17:50:53 0° 16° (NNE) 2,915 6.8 -7.5°
Reaches altitude 10° 17:53:07 10° 20° (NNE) 2,003 5.9 -7.9°
Maximum altitude 17:57:25 59° 101° (E) 724 3.6 -8.6°
Drops below altitude 10° 18:01:41 10° 181° (S) 1,986 6.2 -9.4°
Sets 18:03:53 0° 185° (S) 2,887 7.1 -9.8°
